Hyannis, MA

11:15 PM EDT on April 19, 2018 (GMT -0400)
Barnstable Municipal-Boardman-Polando Field

Weather History for KHYA - July, 2013

Change the Weather History Date:

Sunday, July 7, 2013

  Actual Average Record
Temperature  
Mean Temperature 82 °F -  
Max Temperature 90 °F 76 °F 91 °F (1971)
Min Temperature 73 °F 59 °F 42 °F (1965)
Cooling Degree Days 16    
Growing Degree Days 32 (Base 50)    
Moisture  
Dew Point 71 °F    
Average Humidity 76    
Maximum Humidity 93    
Minimum Humidity 55    
Precipitation  
Precipitation 0.00 in - - ()
Sea Level Pressure  
Sea Level Pressure 29.98 in    
Wind  
Wind Speed 6 mph (SW)    
Max Wind Speed 15 mph    
Max Gust Speed 23 mph    
Visibility 10 miles    
Events      
Averages and records for this station are not official NWS values.
T = Trace of Precipitation, MM = Missing Value Source: NWS Daily Summary

Daily Weather History Graph

Daily Weather History Graph

Search for Another Location

Airport or City:

Trip Planner

Search our weather history database for the weather conditions in past years. The results will help you decide how hot, cold, wet, or windy it might be!

Date:

Astronomy

Jul. 07, 2013 Rise Set
Actual Time 5:14 AM EDT 8:17 PM EDT
Civil Twilight 4:40 AM EDT 8:51 PM EDT
Nautical Twilight 3:57 AM EDT 9:34 PM EDT
Astronomical Twilight 3:06 AM EDT 10:24 PM EDT
Moon 4:48 AM EDT (7/7) 7:38 PM EDT (7/7)
Length of Visible Light 16h 10m
Length of Day
15h 03m
Waning Crescent, 0% of the Moon is Illuminated
Jul 7
Waning Crescent
Jul 8
New
Jul 15
First Quarter
Jul 22
Full
Jul 29
Last Quarter

Hourly Weather History & Observations

Time (EDT) Temp. Heat Index Dew Point Humidity Pressure Visibility Wind Dir Wind Speed Gust Speed Precip Events Conditions
12:56 AM 78.1 °F - 72.0 °F 81% 30.01 in 10.0 mi West 3.5 mph - N/A   Clear
1:56 AM 78.1 °F - 71.1 °F 79% 30.01 in 10.0 mi Calm Calm - N/A   Clear
2:56 AM 73.9 °F - 71.1 °F 91% 30.01 in 10.0 mi Calm Calm - N/A   Clear
3:56 AM 75.0 °F - 70.0 °F 84% 30.00 in 10.0 mi West 3.5 mph - N/A   Clear
4:56 AM 73.0 °F - 70.0 °F 90% 30.00 in 9.0 mi Calm Calm - N/A   Clear
5:56 AM 75.0 °F - 72.0 °F 90% 30.01 in 8.0 mi WSW 4.6 mph - N/A   Clear
6:56 AM 78.1 °F - 72.0 °F 81% 30.01 in 10.0 mi WSW 4.6 mph - N/A   Clear
7:56 AM 82.0 °F 86.7 °F 72.0 °F 71% 30.02 in 10.0 mi West 5.8 mph - N/A   Clear
8:56 AM 84.9 °F 89.4 °F 70.0 °F 61% 30.01 in 10.0 mi Variable 4.6 mph - N/A   Clear
9:56 AM 86.0 °F 92.2 °F 72.0 °F 63% 30.01 in 10.0 mi Variable 5.8 mph - N/A   Clear
10:56 AM 88.0 °F 93.8 °F 71.1 °F 57% 30.01 in 10.0 mi WSW 9.2 mph - N/A   Clear
11:56 AM 90.0 °F 96.9 °F 72.0 °F 55% 29.99 in 10.0 mi SW 10.4 mph - N/A   Clear
12:56 PM 87.1 °F 92.8 °F 71.1 °F 59% 29.99 in 10.0 mi SSW 11.5 mph - N/A   Clear
1:56 PM 88.0 °F 94.7 °F 72.0 °F 59% 29.98 in 10.0 mi SW 12.7 mph 18.4 mph N/A   Clear
2:56 PM 88.0 °F 96.5 °F 73.9 °F 63% 29.96 in 10.0 mi SW 12.7 mph 20.7 mph N/A   Clear
3:56 PM 82.9 °F 89.4 °F 73.9 °F 74% 29.96 in 10.0 mi SW 10.4 mph - N/A   Mostly Cloudy
4:56 PM 84.0 °F 87.8 °F 69.1 °F 61% 29.94 in 10.0 mi SW 15.0 mph - N/A   Clear
5:56 PM 82.0 °F 85.5 °F 69.1 °F 65% 29.95 in 10.0 mi SW 10.4 mph - N/A   Clear
6:56 PM 79.0 °F - 70.0 °F 74% 29.94 in 10.0 mi SW 12.7 mph - N/A   Clear
7:56 PM 77.0 °F - 72.0 °F 84% 29.93 in 10.0 mi SW 13.8 mph 23.0 mph N/A   Clear
8:56 PM 75.9 °F - 72.0 °F 87% 29.96 in 10.0 mi SW 13.8 mph - N/A   Clear
9:56 PM 75.0 °F - 72.0 °F 90% 29.96 in 9.0 mi SSW 8.1 mph - N/A   Clear
10:36 PM 75.2 °F - 71.6 °F 89% 29.96 in 8.0 mi SSW 10.4 mph - N/A   Partly Cloudy
10:56 PM 75.0 °F - 72.0 °F 90% 29.97 in 8.0 mi SW 10.4 mph - N/A   Partly Cloudy
11:56 PM 73.9 °F - 72.0 °F 93% 29.95 in 6.0 mi SSW 4.6 mph - N/A   Partly Cloudy